Borger, TX

12:28 AM CST on January 20, 2017 (GMT -0600)
Hutchinson County

Weather History for KBGD - December, 2013

Change the Weather History Date:

Tuesday, December 17, 2013

  Actual Average Record
Temperature  
Mean Temperature 45 °F 38 °F  
Max Temperature 62 °F 49 °F 77 °F (1980)
Min Temperature 28 °F 26 °F 2 °F (1964)
Degree Days  
Heating Degree Days 20 27  
Month to date heating degree days 479 432  
Since 1 July heating degree days 1193 1149  
Cooling Degree Days 0 0  
Month to date cooling degree days 0 0  
Year to date cooling degree days 2220 1839  
Moisture  
Dew Point 18 °F    
Average Humidity 38    
Maximum Humidity 58    
Minimum Humidity 17    
Precipitation  
Precipitation 0.00 in 0.03 in 1.96 in (1959)
Month to date precipitation T 0.32  
Year to date precipitation 14.93 21.27  
Snow  
Snow 0.00 in - - ()
Month to date snowfall T  
Since 1 July snowfall 3.8  
Snow Depth 0.00 in    
Sea Level Pressure  
Sea Level Pressure 30.27 in    
Wind  
Wind Speed 8 mph (South)    
Max Wind Speed 17 mph    
Max Gust Speed 24 mph    
Visibility 10 miles    
Events      
T = Trace of Precipitation, MM = Missing Value Source: NWS Daily Summary

Daily Weather History Graph

Daily Weather History Graph

Search for Another Location

Airport or City:

Trip Planner

Search our weather history database for the weather conditions in past years. The results will help you decide how hot, cold, wet, or windy it might be!

Date:

Astronomy

Dec. 17, 2013 Rise Set
Actual Time 7:49 AM CST 5:34 PM CST
Civil Twilight 7:21 AM CST 6:02 PM CST
Nautical Twilight 6:49 AM CST 6:34 PM CST
Astronomical Twilight 6:17 AM CST 7:05 PM CST
Moon 6:13 PM CST (12/17) 7:49 AM CST (12/17)
Length of Visible Light 10h 41m
Length of Day
9h 44m
Full, 100% of the Moon is Illuminated
Dec 17
Full
Dec 25
Last Quarter
Jan 1
New
Jan 7
First Quarter
Jan 15
Full

Hourly Weather History & Observations

Time (CST) Temp. Windchill Dew Point Humidity Pressure Visibility Wind Dir Wind Speed Gust Speed Precip Events Conditions
12:51 AM 36.0 °F 32.1 °F 16.0 °F 44% 30.20 in 10.0 mi West 4.6 mph - N/A   Clear
1:51 AM 33.1 °F 28.7 °F 16.0 °F 50% 30.18 in 10.0 mi West 4.6 mph - N/A   Clear
2:51 AM 32.0 °F 28.7 °F 16.0 °F 52% 30.20 in 10.0 mi West 3.5 mph - N/A   Clear
3:51 AM 30.9 °F 22.2 °F 16.0 °F 54% 30.22 in 10.0 mi WSW 10.4 mph - N/A   Clear
4:51 AM 30.9 °F 27.5 °F 16.0 °F 54% 30.23 in 10.0 mi West 3.5 mph - N/A   Clear
5:51 AM 30.9 °F - 16.0 °F 54% 30.25 in 10.0 mi Calm Calm - N/A   Clear
6:51 AM 28.9 °F 21.1 °F 16.0 °F 58% 30.28 in 10.0 mi WSW 8.1 mph - N/A   Clear
7:51 AM 33.1 °F 27.7 °F 16.0 °F 50% 30.29 in 10.0 mi WSW 5.8 mph - N/A   Clear
8:51 AM 30.0 °F 24.1 °F 16.0 °F 56% 30.34 in 10.0 mi WSW 5.8 mph - N/A   Clear
9:51 AM 39.0 °F 35.7 °F 17.1 °F 41% 30.36 in 10.0 mi WNW 4.6 mph - N/A   Clear
10:51 AM 46.0 °F 43.1 °F 18.0 °F 33% 30.37 in 10.0 mi NNE 5.8 mph - N/A   Clear
11:51 AM 52.0 °F - 17.1 °F 25% 30.34 in 10.0 mi ENE 11.5 mph - N/A   Clear
12:51 PM 55.9 °F - 18.0 °F 23% 30.32 in 10.0 mi East 6.9 mph - N/A   Clear
1:51 PM 60.1 °F - 18.0 °F 20% 30.28 in 10.0 mi NE 10.4 mph - N/A   Clear
2:51 PM 62.1 °F - 17.1 °F 18% 30.27 in 10.0 mi East 8.1 mph - N/A   Clear
3:51 PM 62.1 °F - 17.1 °F 18% 30.27 in 10.0 mi East 9.2 mph - N/A   Clear
4:51 PM 61.0 °F - 19.0 °F 20% 30.27 in 10.0 mi ENE 6.9 mph - N/A   Clear
5:51 PM 57.0 °F - 19.0 °F 23% 30.27 in 10.0 mi ENE 6.9 mph - N/A   Clear
6:51 PM 52.0 °F - 18.0 °F 26% 30.29 in 10.0 mi ESE 8.1 mph - N/A   Clear
7:51 PM 50.0 °F - 19.0 °F 29% 30.29 in 10.0 mi SSE 11.5 mph - N/A   Clear
8:51 PM 48.0 °F - 19.9 °F 33% 30.28 in 10.0 mi South 12.7 mph - N/A   Clear
9:51 PM 46.9 °F - 21.9 °F 37% 30.26 in 10.0 mi South 13.8 mph - N/A   Clear
10:51 PM 46.0 °F 40.6 °F 23.0 °F 40% 30.24 in 10.0 mi South 11.5 mph - N/A   Clear
11:51 PM 46.0 °F 40.6 °F 24.1 °F 42% 30.22 in 10.0 mi South 11.5 mph 19.6 mph N/A   Clear